TimeCST,TemperatureF,Dew PointF,Humidity,Sea Level PressureIn,VisibilityMPH,Wind Direction,Wind SpeedMPH,Gust SpeedMPH,PrecipitationIn,Events,Conditions,WindDirDegrees,DateUTC
12:55 AM,58.8,58.6,99,29.86,10.0,South,11.5,-,N/A,,Overcast,190,2013-01-28 06:55:00
1:55 AM,56.3,55.9,99,29.86,10.0,South,10.4,-,N/A,,Overcast,180,2013-01-28 07:55:00
2:55 AM,57.6,57.2,99,29.86,10.0,SSW,11.5,-,N/A,,Overcast,200,2013-01-28 08:55:00
3:55 AM,56.8,56.5,99,29.86,10.0,SSW,9.2,-,N/A,,Overcast,200,2013-01-28 09:55:00
4:55 AM,55.2,55.2,100,29.86,10.0,South,4.6,-,N/A,,Overcast,190,2013-01-28 10:55:00
5:55 AM,55.0,55.0,100,29.87,10.0,SSE,3.5,-,N/A,,Overcast,160,2013-01-28 11:55:00
6:35 AM,55.4,55.4,100,29.87,10.0,SSE,4.6,-,N/A,,Overcast,150,2013-01-28 12:35:00
6:55 AM,55.2,55.2,100,29.87,10.0,SSE,3.5,-,N/A,,Overcast,150,2013-01-28 12:55:00
7:55 AM,55.8,55.8,100,29.88,10.0,SSE,3.5,-,N/A,,Overcast,160,2013-01-28 13:55:00
8:44 AM,59.0,59.0,100,29.88,10.0,South,5.8,-,N/A,,Overcast,180,2013-01-28 14:44:00
8:55 AM,58.8,58.8,100,29.88,10.0,South,5.8,-,N/A,,Overcast,170,2013-01-28 14:55:00
8:59 AM,59.0,59.0,100,29.88,10.0,South,3.5,-,N/A,,Overcast,170,2013-01-28 14:59:00
9:08 AM,59.0,59.0,100,29.89,10.0,South,3.5,-,N/A,,Overcast,170,2013-01-28 15:08:00
9:14 AM,59.0,59.0,100,29.88,10.0,SSE,3.5,-,N/A,,Overcast,160,2013-01-28 15:14:00
9:26 AM,60.8,60.8,100,29.88,10.0,South,4.6,-,N/A,,Overcast,170,2013-01-28 15:26:00
9:55 AM,61.2,61.2,100,29.88,10.0,South,4.6,-,N/A,,Overcast,170,2013-01-28 15:55:00
10:16 AM,62.6,62.6,100,29.88,10.0,South,8.1,-,N/A,,Overcast,190,2013-01-28 16:16:00
10:55 AM,65.8,64.2,94,29.87,10.0,South,9.2,-,N/A,,Overcast,190,2013-01-28 16:55:00
11:34 AM,69.8,62.6,78,29.85,10.0,SW,15.0,-,N/A,,Mostly Cloudy,220,2013-01-28 17:34:00
11:55 AM,71.4,61.2,70,29.84,10.0,SW,21.9,31.1,N/A,,Mostly Cloudy,220,2013-01-28 17:55:00
11:56 AM,71.6,60.8,69,29.83,10.0,SW,24.2,31.1,N/A,,Scattered Clouds,220,2013-01-28 17:56:00
12:55 PM,73.4,59.5,62,29.80,10.0,SSW,26.5,32.2,N/A,,Scattered Clouds,210,2013-01-28 18:55:00
1:55 PM,73.4,58.5,59,29.78,10.0,SSW,27.6,33.4,N/A,,Scattered Clouds,210,2013-01-28 19:55:00
2:55 PM,72.5,61.2,67,29.77,10.0,SSW,31.1,34.5,0.01,,Scattered Clouds,210,2013-01-28 20:55:00
3:55 PM,71.4,61.7,71,29.78,10.0,SSW,18.4,31.1,N/A,,Mostly Cloudy,200,2013-01-28 21:55:00
4:55 PM,70.3,60.8,72,29.76,10.0,SSW,18.4,-,N/A,,Partly Cloudy,200,2013-01-28 22:55:00
5:55 PM,68.4,59.4,73,29.75,10.0,South,15.0,25.3,N/A,,Clear,190,2013-01-28 23:55:00
6:55 PM,67.1,59.4,76,29.75,10.0,South,15.0,-,N/A,,Clear,180,2013-01-29 00:55:00
7:55 PM,66.9,59.2,76,29.73,10.0,South,16.1,25.3,N/A,,Partly Cloudy,180,2013-01-29 01:55:00
8:55 PM,67.6,59.7,76,29.73,10.0,South,21.9,28.8,N/A,,Clear,190,2013-01-29 02:55:00
9:55 PM,67.8,60.4,77,29.73,10.0,South,20.7,-,N/A,,Overcast,190,2013-01-29 03:55:00
10:55 PM,66.9,60.8,81,29.72,10.0,SSW,18.4,28.8,N/A,,Overcast,200,2013-01-29 04:55:00
11:55 PM,65.5,62.2,89,29.72,10.0,SSW,12.7,-,0.00,Rain,Light Rain,210,2013-01-29 05:55:00